Wind_Speed
5 5 6 5 3 3 2 0 1 1 1 2 5 6 6 4 4 3 6 6 7 8 11 11 14 10 3 3 5 3 5 4 7 8 6 16 6 11 11 14 11 11 14 11 5
7 5 5 5 4 3 2 1 1 1 2 4 6 8 7 6 8 7 6 7 6 7 9 12 11 6 4 4 5 7 5 2 2 10 10 14 14 14 9 16 16 18 12 7 7
8 6 5 5 4 4 3 3 2 3 5 6 7 4 1 1 2 4 5 4 4 7 8 13 13 8 6 7 6 4 4 3 9 24 26 21 13 10 24 5 7 14 12 7 7
9 7 6 5 5 5 4 3 3 3 5 6 4 2 1 1 2 1 2 2 3 6 9 13 10 5 4 3 5 7 12 10 12 25 24 7 9 9 5 10 13 12 10 7 7
10 9 8 6 5 5 5 4 3 3 4 4 4 2 3 2 1 1 2 2 4 7 9 11 10 9 5 8 17 9 5 14 16 20 18 17 12 10 14 14 12 11 9 8 6
11 10 9 7 6 6 5 4 4 3 3 3 3 3 1 1 1 1 1 3 3 7 11 12 9 14 14 6 6 14 19 13 15 15 14 13 11 3 10 12 11 9 9 7 5
13 11 10 10 8 7 7 5 5 5 4 3 3 3 1 2 2 2 2 5 5 10 13 16 22 5 10 12 25 23 9 8 11 7 5 19 2 3 17 14 13 9 8 7 5
15 13 11 11 10 9 8 6 6 5 4 4 4 2 1 2 4 4 4 8 10 12 15 14 11 17 7 29 7 5 5 4 5 7 11 3 4 6 16 17 16 12 11 8 5
17 15 13 12 11 10 9 7 6 5 5 5 3 2 1 4 4 4 6 9 12 13 15 14 9 12 19 7 5 1 3 4 2 9 5 5 3 9 16 20 18 17 14 10 7
19 18 16 14 13 12 10 8 6 5 5 5 4 2 3 3 4 6 8 10 7 13 10 5 6 4 2 3 5 7 4 3 5 5 5 5 3 9 20 23 23 21 18 16 12
20 20 18 16 15 14 13 10 7 3 7 3 4 4 4 5 6 6 9 8 10 4 3 2 5 6 12 6 1 5 5 6 2 2 5 7 6 10 20 22 22 23 22 20 15
21 22 20 18 18 17 17 8 6 5 5 5 3 6 6 9 3 7 9 4 3 3 3 5 3 3 5 3 1 2 5 3 2 2 2 5 9 9 21 23 28 27 24 22 16
22 23 23 21 20 20 20 14 6 4 3 3 7 4 7 9 2 7 8 6 2 3 2 5 2 2 3 3 5 3 6 4 3 2 2 2 8 7 12 22 26 26 26 24 21
24 23 24 23 18 21 25 19 8 5 4 4 5 6 9 8 1 7 8 4 2 5 4 4 1 2 4 3 2 4 3 6 8 5 3 4 5 5 11 15 19 26 28 27 23
26 24 26 24 13 23 16 20 8 3 1 3 4 6 9 5 11 3 7 3 5 3 5 2 3 2 2 2 2 3 2 6 4 2 3 2 2 7 6 11 17 22 26 27 24
30 25 24 27 23 17 14 20 15 5 7 3 6 5 6 3 3 6 2 4 8 5 6 2 1 3 3 3 1 6 6 8 5 2 2 4 6 6 6 11 8 19 35 29 25
34 28 23 30 25 17 19 24 4 5 3 6 6 8 4 5 4 4 5 4 6 5 2 2 2 2 7 6 7 3 5 3 3 3 6 3 4 9 7 8 13 24 33 34 32
38 30 23 29 26 23 30 4 6 5 8 3 5 9 7 6 3 6 7 4 6 3 4 6 4 7 3 4 7 6 5 5 7 3 4 4 6 7 5 16 16 26 34 36 34
43 35 31 30 29 28 23 7 9 8 9 10 5 5 3 4 6 4 9 7 9 10 7 5 1 1 4 2 2 5 4 4 6 2 3 4 7 10 4 2 8 24 33 40 35
48 43 41 33 34 30 4 16 5 7 9 4 9 5 9 8 7 8 11 6 6 13 4 8 4 1 1 1 1 2 4 3 3 2 4 4 4 7 7 9 7 15 30 39 36
49 23 26 39 37 19 11 8 5 8 9 8 7 6 5 9 8 7 10 2 8 6 9 5 5 1 2 7 8 2 2 1 2 4 5 2 6 7 11 13 16 22 33 43 40
38 5 33 48 11 7 11 8 9 7 11 5 5 5 9 11 7 7 12 4 16 17 10 3 5 4 7 2 2 4 6 6 4 5 3 3 7 3 2 9 21 24 33 39 38
22 11 42 48 10 12 5 7 6 8 6 7 8 4 4 9 4 7 8 1 13 9 12 9 1 3 5 3 2 6 7 4 4 3 6 4 7 2 2 2 21 27 34 39 36
13 5 10 18 15 21 22 11 15 14 6 6 6 6 5 3 0 8 4 1 3 5 6 9 3 7 9 5 6 6 7 10 7 3 4 10 13 13 7 8 14 25 35 39 38
12 5 15 9 16 17 23 14 17 13 13 21 5 8 10 5 3 4 3 2 5 4 3 5 7 5 4 3 4 4 6 17 14 20 9 18 13 26 13 13 27 32 33 37 41
10 6 11 4 21 19 18 22 30 26 17 11 11 13 8 9 9 9 8 4 6 1 5 1 2 3 2 4 3 4 8 12 19 7 15 21 22 2 15 24 21 30 37 42 45
12 10 10 12 15 18 21 35 39 25 22 35 21 13 14 7 8 17 12 16 9 11 8 6 6 3 5 2 3 5 17 17 7 7 12 15 29 5 8 14 28 32 43 47 48
Wind_Direction
261 282 295 295 290 276 246 242 291 230 149 141 126 114 110 112 89 108 82 86 96 111 115 119 109 85 53 116 52 38 79 148 171 146 159 123 99 68 88 101 80 88 102 118 129
263 265 280 287 274 250 248 208 201 171 148 153 139 124 108 108 96 83 97 93 94 116 136 128 106 116 56 18 28 63 92 89 201 149 144 127 128 128 99 96 97 99 107 122 122
265 268 271 281 273 250 229 218 198 181 153 143 145 150 150 153 73 38 59 81 102 117 137 136 108 90 63 23 8 57 116 130 60 130 131 134 100 124 121 60 138 136 127 122 112
260 261 260 258 253 249 234 224 211 194 176 176 188 230 203 179 189 38 69 104 123 138 140 132 119 100 81 48 359 95 70 90 103 119 124 96 106 77 80 133 140 139 139 127 103
248 257 254 245 245 231 221 224 221 203 196 182 200 181 159 79 79 41 75 127 152 147 153 129 126 106 110 107 69 72 80 74 116 115 100 116 102 119 115 137 144 143 141 127 110
238 245 248 233 235 224 230 220 205 195 189 183 200 218 221 60 356 66 66 96 154 146 148 147 144 127 77 66 80 114 99 94 100 101 122 113 133 82 158 152 149 158 146 142 136
237 233 242 241 210 221 210 216 209 190 182 179 197 196 249 219 232 130 120 102 103 140 133 137 139 156 102 85 122 106 77 47 116 117 126 123 121 132 164 168 159 166 162 161 159
232 227 225 229 223 209 208 202 200 190 178 169 159 165 145 204 179 151 125 99 103 109 132 132 140 108 92 125 107 79 85 117 240 149 168 114 251 189 179 176 178 188 183 182 183
228 224 224 220 221 212 201 196 187 181 175 177 182 206 290 182 176 152 135 122 113 117 121 122 113 93 128 101 58 284 182 138 227 197 156 168 235 195 181 186 189 191 189 198 201
226 219 219 217 212 209 196 174 179 172 165 177 188 169 224 190 170 156 144 143 122 122 108 91 92 95 61 85 189 189 207 147 175 223 155 195 225 198 189 195 194 195 194 196 205
227 219 214 214 208 205 188 155 157 171 189 197 171 145 158 170 156 157 151 141 134 122 119 104 93 184 196 201 126 173 146 130 131 104 157 222 218 207 203 208 202 200 196 198 208
231 220 213 206 206 203 191 178 175 149 131 217 215 195 174 163 130 153 158 146 149 132 103 37 186 178 137 163 109 28 125 98 55 156 158 227 241 207 206 216 211 202 199 200 196
232 222 214 206 205 204 198 184 176 161 90 186 190 191 168 172 158 168 171 136 122 121 149 153 168 168 149 139 127 37 158 180 158 143 347 314 284 197 226 213 215 214 207 205 197
232 225 214 209 203 208 206 185 126 146 67 209 206 191 179 161 137 174 166 141 88 141 111 102 212 180 142 121 112 148 321 131 132 120 210 132 274 239 208 208 211 213 212 194 191
231 228 215 202 196 200 207 196 182 170 350 146 153 158 161 161 137 147 161 105 130 86 110 188 143 135 112 92 21 166 117 126 125 105 70 208 76 277 159 220 219 199 191 193 200
226 227 216 195 203 193 172 169 157 56 243 166 129 154 128 154 111 111 122 100 116 81 36 82 50 56 119 31 81 137 72 43 42 59 353 211 170 268 200 223 209 202 207 201 201
220 223 221 207 197 180 165 151 59 176 280 202 175 157 160 159 146 141 155 167 152 113 163 50 19 353 136 75 353 52 90 13 349 356 221 339 168 246 232 230 201 198 200 203 198
216 214 219 214 191 175 165 78 189 213 189 158 114 111 171 153 204 166 130 201 253 129 124 155 286 174 206 193 185 186 163 160 204 197 256 355 234 251 214 249 219 211 197 193 190
205 199 209 210 189 178 174 205 203 195 158 137 75 107 210 162 139 150 168 199 204 185 159 144 196 16 52 1 128 195 197 164 103 57 56 225 272 297 206 142 172 170 181 186 189
197 188 199 202 187 180 171 224 190 150 126 148 161 150 169 181 151 183 168 206 190 187 177 181 96 342 285 23 356 178 165 84 352 168 264 279 268 249 247 212 181 171 176 183 191
184 175 197 185 179 169 213 212 204 189 149 155 178 141 163 173 170 193 195 250 179 170 148 135 108 307 99 214 181 148 233 21 141 160 188 241 253 221 230 191 198 188 185 187 192
177 177 176 179 148 195 215 171 202 186 194 190 125 110 164 165 161 197 200 231 164 142 164 162 119 164 208 273 263 194 194 162 137 234 235 147 260 227 227 224 197 194 190 194 199
180 132 164 171 175 209 192 176 234 174 181 182 187 159 162 164 129 188 194 183 171 148 162 179 186 71 349 340 328 216 200 149 121 90 210 142 262 207 272 210 207 193 195 197 198
163 125 161 202 202 199 199 196 205 199 190 163 161 114 109 106 224 166 143 349 67 102 129 135 138 163 191 186 134 200 193 177 140 135 190 227 264 256 224 221 199 204 206 201 202
197 182 168 184 214 197 190 182 201 200 208 174 189 190 166 136 80 142 106 88 23 122 84 132 190 154 230 171 179 212 177 186 195 220 196 249 218 253 218 212 209 208 200 198 200
177 157 174 176 204 195 204 212 199 208 179 202 212 186 189 165 179 181 136 191 179 108 152 47 229 111 302 234 217 232 229 196 216 252 259 262 272 165 268 230 211 208 200 196 201
185 182 164 172 187 182 202 212 211 191 215 210 197 165 194 209 143 151 141 141 145 153 172 147 136 111 251 42 63 295 214 210 192 199 217 230 244 135 223 206 223 211 206 204 208
Height
1515 1516 1517 1516 1516 1517 1517 1517 1518 1518 1519 1519 1519 1520 1520 1520 1520 1520 1519 1521 1521 1521 1522 1523 1524 1526 1526 1525 1524 1525 1543 1556 1555 1559 1560 1559 1563 1569 1572 1572 1576 1580 1582 1586 1586
1515 1515 1516 1516 1517 1516 1517 1517 1517 1518 1519 1519 1520 1521 1521 1521 1520 1519 1521 1520 1521 1521 1522 1523 1524 1526 1527 1528 1527 1526 1545 1545 1544 1548 1556 1559 1562 1569 1576 1577 1582 1582 1584 1584 1584
1514 1514 1514 1515 1516 1516 1516 1517 1517 1518 1518 1519 1521 1521 1521 1522 1521 1521 1520 1521 1521 1522 1523 1523 1525 1527 1528 1532 1532 1532 1546 1545 1546 1546 1551 1561 1566 1570 1573 1580 1579 1580 1582 1583 1583
1513 1513 1514 1514 1515 1516 1516 1516 1517 1518 1519 1519 1521 1521 1521 1521 1525 1521 1521 1521 1522 1522 1523 1523 1524 1526 1530 1536 1534 1541 1546 1545 1551 1551 1553 1560 1566 1570 1571 1574 1578 1580 1582 1583 1583
1510 1512 1513 1513 1514 1515 1515 1516 1517 1518 1519 1520 1521 1521 1522 1522 1523 1521 1521 1522 1522 1522 1524 1524 1525 1527 1533 1537 1539 1545 1548 1550 1553 1554 1558 1560 1567 1569 1575 1577 1579 1581 1582 1581 1580
1509 1510 1511 1511 1513 1514 1515 1516 1516 1518 1519 1520 1521 1522 1522 1523 1522 1521 1522 1522 1522 1523 1524 1524 1525 1528 1533 1538 1542 1548 1550 1555 1557 1558 1561 1564 1570 1570 1577 1577 1578 1579 1579 1579 1579
1506 1508 1509 1511 1510 1513 1514 1516 1516 1517 1518 1519 1520 1521 1522 1524 1522 1522 1523 1522 1523 1523 1524 1524 1526 1528 1536 1542 1546 1550 1557 1559 1562 1561 1565 1565 1573 1573 1574 1576 1578 1578 1578 1578 1578
1504 1506 1507 1509 1510 1511 1513 1514 1516 1517 1518 1519 1520 1520 1521 1522 1523 1523 1524 1524 1524 1525 1526 1528 1529 1530 1537 1545 1550 1556 1559 1570 1563 1563 1565 1567 1571 1571 1572 1574 1575 1575 1576 1577 1578
1500 1503 1505 1506 1509 1510 1512 1514 1515 1517 1518 1519 1520 1521 1521 1522 1523 1523 1525 1526 1526 1527 1528 1530 1531 1537 1543 1549 1559 1558 1565 1565 1566 1562 1564 1567 1569 1567 1568 1570 1572 1573 1573 1575 1575
1496 1498 1501 1504 1507 1509 1511 1512 1515 1517 1518 1519 1519 1523 1523 1522 1522 1523 1524 1526 1528 1529 1529 1531 1534 1542 1546 1551 1562 1562 1561 1561 1564 1561 1564 1566 1565 1565 1565 1565 1565 1567 1568 1568 1569
1492 1495 1497 1502 1504 1507 1510 1512 1517 1519 1517 1518 1518 1517 1519 1522 1522 1523 1525 1526 1527 1529 1530 1532 1540 1546 1541 1543 1541 1546 1549 1556 1559 1558 1561 1564 1563 1562 1561 1562 1562 1564 1565 1566 1567
1488 1491 1495 1498 1501 1504 1508 1509 1510 1511 1514 1517 1517 1518 1519 1521 1522 1523 1525 1527 1528 1532 1530 1537 1539 1538 1537 1539 1540 1541 1552 1560 1560 1557 1559 1557 1556 1557 1554 1552 1553 1557 1560 1563 1565
1483 1487 1491 1494 1497 1501 1504 1507 1509 1511 1511 1514 1515 1517 1518 1522 1522 1523 1525 1525 1528 1531 1531 1536 1538 1537 1538 1540 1543 1550 1552 1558 1555 1559 1558 1558 1557 1550 1546 1547 1550 1552 1555 1558 1560
1478 1482 1486 1491 1499 1498 1500 1506 1508 1512 1521 1512 1513 1512 1516 1518 1521 1523 1524 1525 1527 1533 1535 1538 1538 1538 1538 1541 1543 1548 1548 1552 1558 1562 1571 1562 1573 1545 1540 1541 1542 1544 1549 1553 1554
1474 1478 1482 1488 1488 1493 1497 1502 1508 1513 1542 1509 1511 1512 1514 1517 1519 1522 1524 1524 1528 1532 1534 1539 1540 1540 1541 1545 1544 1548 1549 1553 1559 1561 1563 1564 1579 1538 1538 1542 1537 1539 1542 1546 1549
1468 1473 1477 1482 1486 1490 1497 1502 1508 1528 1531 1510 1508 1511 1515 1517 1519 1520 1524 1526 1527 1531 1537 1543 1542 1543 1545 1547 1545 1547 1553 1558 1566 1570 1597 1560 1566 1545 1542 1524 1525 1531 1533 1538 1543
1461 1466 1473 1478 1483 1489 1495 1501 1526 1530 1496 1507 1505 1506 1512 1516 1518 1518 1524 1527 1530 1542 1544 1544 1546 1545 1544 1550 1549 1550 1559 1602 1594 1607 1582 1560 1564 1532 1516 1516 1514 1518 1524 1531 1536
1453 1460 1466 1475 1480 1487 1491 1501 1525 1498 1495 1491 1496 1501 1509 1512 1516 1516 1522 1529 1525 1523 1545 1548 1553 1546 1543 1544 1547 1552 1554 1573 1578 1582 1567 1561 1560 1521 1510 1508 1510 1513 1519 1527 1533
1444 1451 1458 1467 1476 1483 1487 1500 1473 1483 1477 1487 1497 1508 1510 1507 1511 1514 1517 1522 1517 1517 1522 1542 1540 1543 1543 1544 1545 1549 1558 1551 1581 1605 1586 1550 1537 1514 1510 1509 1510 1512 1517 1522 1528
1436 1441 1447 1460 1470 1479 1486 1465 1467 1462 1470 1478 1478 1492 1506 1507 1507 1511 1511 1501 1501 1507 1508 1519 1547 1545 1546 1544 1545 1545 1545 1560 1577 1574 1585 1552 1531 1514 1511 1511 1509 1511 1511 1516 1522
1425 1436 1440 1449 1464 1478 1471 1468 1462 1460 1459 1468 1474 1490 1490 1497 1500 1504 1503 1492 1492 1504 1506 1513 1528 1553 1547 1545 1542 1549 1552 1553 1550 1553 1562 1567 1535 1500 1494 1498 1500 1502 1504 1507 1512
1416 1429 1434 1440 1460 1464 1459 1457 1454 1455 1458 1459 1463 1470 1479 1487 1494 1498 1492 1486 1483 1493 1508 1508 1531 1553 1546 1538 1537 1536 1536 1540 1557 1550 1555 1558 1530 1492 1491 1492 1495 1498 1500 1505 1510
1410 1417 1432 1432 1438 1447 1447 1448 1451 1452 1454 1456 1459 1459 1469 1478 1488 1486 1485 1484 1483 1485 1496 1501 1530 1563 1547 1542 1538 1534 1529 1531 1547 1551 1551 1554 1503 1488 1490 1490 1490 1493 1497 1501 1506
1401 1414 1426 1430 1422 1428 1435 1441 1444 1442 1446 1447 1452 1458 1466 1474 1475 1482 1485 1488 1485 1486 1490 1492 1513 1513 1507 1502 1517 1527 1520 1521 1533 1561 1542 1518 1489 1480 1489 1488 1487 1490 1493 1496 1500
1392 1393 1395 1414 1414 1408 1420 1427 1436 1438 1436 1439 1450 1448 1454 1472 1478 1480 1485 1489 1489 1489 1492 1494 1506 1514 1517 1505 1510 1506 1508 1513 1518 1504 1512 1475 1497 1459 1478 1479 1477 1479 1486 1492 1494
1383 1386 1392 1390 1402 1414 1418 1409 1411 1421 1420 1430 1429 1441 1444 1450 1448 1470 1475 1480 1478 1492 1494 1495 1508 1508 1514 1507 1508 1510 1503 1507 1503 1506 1504 1491 1487 1469 1466 1469 1472 1474 1478 1480 1485
1377 1381 1383 1382 1393 1400 1395 1380 1378 1406 1411 1409 1420 1431 1439 1438 1442 1444 1453 1461 1468 1478 1492 1496 1505 1515 1516 1508 1519 1517 1496 1490 1491 1495 1483 1487 1450 1459 1460 1461 1462 1466 1468 1469 1474